This is the latest recevied weather packets stored in our database for station/object KC3WWU. If no packets are shown the sender has not sent any weather packets the latest 10 day(s).
| Time | Temp. | Humidity | Pressure | Rain* | Wind** | Luminosity | Snow |
|---|---|---|---|---|---|---|---|
| 1778274824 | 11.11° C | 78% | 1009.3 hPa | 0 mm | - | 92 W/m² | - |
| 1778274522 | 11.67° C | 75% | 1009.3 hPa | 0 mm | - | 99 W/m² | - |
| 1778274218 | 11.67° C | 74% | 1009.6 hPa | 0 mm | - | 87 W/m² | - |
| 1778273915 | 11.67° C | 73% | 1009.1 hPa | 0 mm | - | 111 W/m² | - |
| 1778273612 | 11.67° C | 74% | 1009.2 hPa | 0 mm | - | 80 W/m² | - |
| 1778273308 | 11.67° C | 74% | 1009.5 hPa | 0 mm | - | 82 W/m² | - |
| 1778273005 | 11.67° C | 72% | 1009.3 hPa | 0 mm | - | 71 W/m² | - |
| 1778272701 | 11.67° C | 74% | 1009.6 hPa | 0 mm | - | 107 W/m² | - |
| 1778272397 | 11.67° C | 72% | 1009.4 hPa | 0 mm | - | 96 W/m² | - |
| 1778272093 | 11.67° C | 71% | 1009.5 hPa | 0 mm | - | 139 W/m² | - |
| 1778271791 | 11.67° C | 70% | 1009.5 hPa | 0 mm | - | 99 W/m² | - |
| 1778271488 | 12.22° C | 69% | 1009.6 hPa | 0 mm | - | 109 W/m² | - |
| 1778271185 | 12.78° C | 68% | 1009.6 hPa | 0 mm | - | 96 W/m² | - |
| 1778270881 | 12.78° C | 67% | 1009.4 hPa | 0 mm | - | 113 W/m² | - |
| 1778270577 | 12.78° C | 66% | 1009.4 hPa | 0 mm | - | 133 W/m² | - |
| 1778270273 | 12.78° C | 68% | 1009.3 hPa | 0 mm | - | 179 W/m² | - |
| 1778269970 | 12.78° C | 68% | 1009.4 hPa | 0 mm | - | 191 W/m² | - |
| 1778269667 | 12.22° C | 67% | 1009.5 hPa | 0 mm | - | 146 W/m² | - |
| 1778269364 | 12.22° C | 69% | 1009.6 hPa | 0 mm | - | 107 W/m² | - |
| 1778269061 | 12.22° C | 68% | 1009.6 hPa | 0 mm | - | 108 W/m² | - |
| 1778268757 | 12.22° C | 70% | 1009.7 hPa | 0 mm | - | 138 W/m² | - |
| 1778268453 | 12.22° C | 68% | 1009.7 hPa | 0 mm | - | 55 W/m² | - |
| 1778268151 | 12.22° C | 71% | 1009.6 hPa | 0 mm | - | 97 W/m² | - |
| 1778267848 | 13.33° C | 66% | 1009.6 hPa | 0 mm | - | 46 W/m² | - |
| 1778267545 | 13.33° C | 62% | 1009.2 hPa | 0 mm | - | 102 W/m² | - |
* Rain latest hour (hover to see other rain measurements)
** Current wind speed in m/s (hover to see current wind gust speed)